Regional Weather Roundup
Issued by NWS

Home | Current Version | Previous Version | Text Only | Print | Product List | Glossary On
Versions: 1 2 3 4 5 6 7 8 9 10 11 12 13 14 15 16 17 18 19 20 21 22 23 24 25 26 27 28 29 30 31 32 33 34 35 36 37 38 39 40 41 42 43 44 45 46 47 48 49 50
807
ASUS43 KLSX 042057
RWRMO

WEATHER SUMMARY FOR MISSOURI
NATIONAL WEATHER SERVICE SPRINGFIELD MO
300 PM CST SUN DEC 04 2016

NOTE: "FAIR" INDICATES FEW OR NO CLOUDS BELOW 12,000 FEET WITH NO
       SIGNIFICANT WEATHER AND/OR OBSTRUCTIONS TO VISIBILITY.
       CURRENT SKY AND/OR WEATHER CONDITIONS ARE NOT AVAILABLE FOR
       CHILLICOTHE AND FARMINGTON.

MOZ001>031-035>038-043-044-053-054-042200-
...NORTHERN AND WESTERN MISSOURI...

CITY           SKY/WX    TMP DP  RH WIND       PRES   REMARKS
KANSAS CTY INT PTSUNNY   45  35  68 W8        29.97R
LEE`S SUMMIT   MOSUNNY   46  37  71 W8        29.97R
ST JOSEPH      CLOUDY    39  35  86 SW8       29.97R
CHILLICOTHE      N/A     43  37  79 W6        29.96R

$$
MOZ066>068-077>081-088>096-101>105-042200-
...SOUTHWEST MISSOURI...

CITY           SKY/WX    TMP DP  RH WIND       PRES   REMARKS
SPRINGFIELD    CLOUDY    45  38  76 W10       30.00R
JOPLIN         CLOUDY    46  40  79 W12       30.03R
BRANSON        CLOUDY    45  39  81 NW9       30.01R

$$
MOZ032>034-039>042-045>050-055>058-069>072-042200-
...CENTRAL MISSOURI...

CITY           SKY/WX    TMP DP  RH WIND       PRES   REMARKS
COLUMBIA       NOT AVBL
JEFFERSON CITY CLOUDY    41  38  89 NW7       29.98R
ROLLA          CLOUDY    41  38  89 W9        29.95R
SEDALIA        CLOUDY    44  38  79 W8        29.99R
WARRENSBURG    PTSUNNY   43  36  75 W7        29.98S

$$
MOZ051-052-059>065-042200-
...EAST CENTRAL MISSOURI...

CITY           SKY/WX    TMP DP  RH WIND       PRES   REMARKS
ST LOUIS INTL  CLOUDY    41  36  82 W9        29.94S

$$
MOZ072>076-082>087-097>100-106>115-042200-
...SOUTH CENTRAL AND SOUTHEAST MISSOURI...

CITY           SKY/WX    TMP DP  RH WIND       PRES   REMARKS
CAPE GIRARDEAU CLOUDY    43  40  89 W13       29.97R
POPLAR BLUFF   CLOUDY    44  41  89 W8        29.98R
WEST PLAINS    CLOUDY    44  41  89 W6        29.97F

$$



USA.gov is the U.S. government's official web portal to all federal, state and local government web resources and services.